Juneau, WI

9:26 PM CST on December 14, 2019 (GMT -0600)
Dodge County

Weather History for KUNU - October, 2019

Change the Weather History Date:

Friday, October 11, 2019

  Actual Average Record
Temperature  
Mean Temperature 50 °F -  
Max Temperature 64 °F 59 °F 79 °F (1973)
Min Temperature 36 °F 41 °F 22 °F (1990)
Degree Days  
Heating Degree Days 15    
Moisture  
Dew Point 44 °F    
Average Humidity 85    
Maximum Humidity 100    
Minimum Humidity 62    
Precipitation  
Precipitation 0.14 in - - ()
Sea Level Pressure  
Sea Level Pressure 29.86 in    
Wind  
Wind Speed 11 mph ()    
Max Wind Speed 22 mph    
Max Gust Speed 28 mph    
Visibility 8.4 miles    
Events Rain , Thunderstorm    
Averages and records for this station are not official NWS values.
T = Trace of Precipitation, MM = Missing Value Source: Averaged Metar Reports

Daily Weather History Graph

Daily Weather History Graph

Search for Another Location

Airport or City:

Astronomy

Oct. 11, 2019 Rise Set
Actual Time 7:03 AM CDT 6:18 PM CDT
Civil Twilight 6:35 AM CDT 6:47 PM CDT
Nautical Twilight 6:01 AM CDT 7:20 PM CDT
Astronomical Twilight 5:28 AM CDT 7:53 PM CDT
Moon 5:53 PM CDT (10/11) 4:37 AM CDT (10/11)
Length of Visible Light 12h 12m
Length of Day
11h 14m
Waxing Gibbous, 96% of the Moon is Illuminated
Oct 11
Waxing Gibbous
Oct 13
Full
Oct 21
Last Quarter
Oct 27
New
Nov 4
First Quarter

Hourly Weather History & Observations

Time (CDT) Temp. Windchill Dew Point Humidity Pressure Visibility Wind Dir Wind Speed Gust Speed Precip Events Conditions
12:15 AM 61.2 °F - 59.5 °F 94% 29.88 in 10.0 mi ESE 6.9 mph - N/A   Overcast
12:35 AM 61.2 °F - 59.5 °F 94% 29.87 in 10.0 mi ESE 9.2 mph - N/A   Overcast
12:55 AM 61.5 °F - 59.7 °F 94% 29.86 in 10.0 mi SE 8.1 mph - N/A   Overcast
1:15 AM 62.1 °F - 60.3 °F 94% 29.85 in 10.0 mi SE 10.4 mph - N/A   Overcast
1:35 AM 62.2 °F - 60.8 °F 95% 29.86 in 10.0 mi SE 6.9 mph - N/A   Overcast
1:55 AM 62.6 °F - 61.2 °F 95% 29.85 in 10.0 mi SE 8.1 mph - N/A   Overcast
2:15 AM 62.4 °F - 61.2 °F 96% 29.84 in 10.0 mi SE 8.1 mph - N/A   Overcast
2:35 AM 62.1 °F - 61.2 °F 97% 29.82 in 10.0 mi ESE 9.2 mph - N/A   Mostly Cloudy
3:15 AM 62.6 °F - 61.5 °F 96% 29.80 in 10.0 mi SE 11.5 mph - N/A   Overcast
3:35 AM 62.6 °F - 61.7 °F 97% 29.81 in 10.0 mi SE 9.2 mph 17.3 mph N/A   Overcast
3:55 AM 62.6 °F - 61.7 °F 97% 29.81 in 7.0 mi SE 10.4 mph 16.1 mph 0.01 in Rain Light Rain
4:15 AM 62.4 °F - 61.9 °F 98% 29.80 in 5.0 mi SE 9.2 mph - 0.03 in Rain Rain
4:35 AM 62.4 °F - 61.9 °F 98% 29.80 in 5.0 mi SE 9.2 mph - 0.03 in   Drizzle
4:55 AM 62.1 °F - 61.7 °F 99% 29.78 in 2.5 mi ESE 9.2 mph - 0.04 in   Overcast
5:15 AM 62.2 °F - 62.1 °F 99% 29.78 in 5.0 mi SE 6.9 mph - N/A Thunderstorm Overcast
5:35 AM 62.4 °F - 62.1 °F 99% 29.77 in 4.0 mi SE 9.2 mph - N/A Thunderstorm Overcast
5:55 AM 62.6 °F - 62.6 °F 100% 29.77 in 3.0 mi SE 10.4 mph - 0.05 in Rain Light Rain
6:35 AM 63.1 °F - 62.8 °F 99% 29.77 in 4.0 mi SSE 10.4 mph 16.1 mph 0.01 in   Overcast
6:55 AM 63.3 °F - 63.0 °F 99% 29.77 in 3.0 mi SSE 11.5 mph 16.1 mph 0.01 in   Light Drizzle
7:15 AM 63.7 °F - 63.3 °F 99% 29.77 in 5.0 mi South 10.4 mph 16.1 mph N/A   Overcast
7:35 AM 63.9 °F - 63.5 °F 99% 29.77 in 5.0 mi South 12.7 mph 16.1 mph N/A   Overcast
7:55 AM 64.0 °F - 63.5 °F 98% 29.76 in 7.0 mi South 10.4 mph 16.1 mph N/A   Overcast
8:55 AM 56.7 °F - 56.1 °F 98% 29.80 in 1.5 mi SW 16.1 mph 23.0 mph 0.01 in   Heavy Drizzle
9:15 AM 54.0 °F - 53.6 °F 99% 29.80 in 2.5 mi SW 13.8 mph 20.7 mph N/A   Drizzle
9:35 AM 50.7 °F - 50.2 °F 98% 29.81 in 2.5 mi WSW 17.3 mph 23.0 mph N/A   Drizzle
9:55 AM 48.7 °F - 47.7 °F 96% 29.83 in 3.0 mi WSW 16.1 mph 25.3 mph 0.01 in   Drizzle
10:35 AM 45.7 °F 42.7 °F 44.6 °F 96% 29.83 in 7.0 mi SW 5.8 mph 18.4 mph 0.01 in Rain Rain
10:55 AM 45.9 °F 42.9 °F 45.1 °F 97% 29.83 in 10.0 mi WSW 5.8 mph - 0.01 in Rain Light Rain
11:15 AM 45.7 °F 41.0 °F 45.0 °F 97% 29.84 in 10.0 mi SW 9.2 mph - N/A Rain Light Rain
11:35 AM 45.0 °F 39.3 °F 43.7 °F 95% 29.86 in 7.0 mi SW 11.5 mph 18.4 mph N/A   Overcast
11:55 AM 44.6 °F 38.1 °F 43.5 °F 96% 29.84 in 4.0 mi WSW 13.8 mph 18.4 mph N/A   Overcast
12:15 PM 44.6 °F 38.4 °F 42.8 °F 93% 29.85 in 10.0 mi WSW 12.7 mph 21.9 mph N/A   Overcast
12:35 PM 43.7 °F 36.3 °F 41.9 °F 93% 29.86 in 10.0 mi WSW 16.1 mph 21.9 mph N/A   Overcast
12:55 PM 43.5 °F 35.0 °F 41.0 °F 91% 29.85 in 10.0 mi WSW 20.7 mph 26.5 mph N/A   Overcast
1:15 PM 45.0 °F 38.9 °F 41.4 °F 87% 29.84 in 10.0 mi WSW 12.7 mph 21.9 mph N/A   Overcast
1:35 PM 43.7 °F 36.6 °F 39.4 °F 85% 29.83 in 10.0 mi WSW 15.0 mph 25.3 mph N/A   Overcast
1:55 PM 42.8 °F 34.8 °F 39.0 °F 86% 29.86 in 10.0 mi SW 17.3 mph 26.5 mph N/A   Overcast
2:15 PM 41.9 °F 33.7 °F 38.1 °F 86% 29.84 in 10.0 mi WSW 17.3 mph 25.3 mph N/A   Overcast
2:35 PM 41.5 °F 32.9 °F 38.5 °F 89% 29.86 in 10.0 mi SW 18.4 mph 24.2 mph N/A Rain Rain
3:15 PM 41.0 °F 33.1 °F 38.1 °F 89% 29.86 in 10.0 mi WSW 15.0 mph - N/A   Light Drizzle
3:35 PM 41.2 °F 33.7 °F 37.4 °F 86% 29.87 in 10.0 mi SW 13.8 mph - N/A   Overcast
3:55 PM 41.4 °F 32.4 °F 36.1 °F 82% 29.87 in 10.0 mi WSW 19.6 mph - N/A   Overcast
4:15 PM 41.2 °F 32.1 °F 35.6 °F 81% 29.87 in 10.0 mi WSW 19.6 mph 24.2 mph N/A   Overcast
4:35 PM 40.6 °F 30.9 °F 34.5 °F 79% 29.88 in 10.0 mi WSW 21.9 mph 27.6 mph N/A   Overcast
4:55 PM 39.7 °F 29.7 °F 32.4 °F 75% 29.89 in 10.0 mi SW 21.9 mph 27.6 mph N/A   Overcast
5:15 PM 39.6 °F 30.3 °F 32.0 °F 74% 29.90 in 10.0 mi WSW 18.4 mph 25.3 mph N/A   Overcast
5:35 PM 39.4 °F 30.7 °F 31.5 °F 73% 29.90 in 10.0 mi WSW 16.1 mph 26.5 mph N/A   Overcast
5:55 PM 39.2 °F 29.3 °F 31.6 °F 74% 29.92 in 10.0 mi WSW 20.7 mph 26.5 mph N/A   Overcast
6:15 PM 39.2 °F 29.6 °F 30.9 °F 72% 29.92 in 10.0 mi SW 19.6 mph 25.3 mph N/A   Overcast
6:35 PM 38.7 °F 29.1 °F 29.8 °F 71% 29.93 in 10.0 mi WSW 18.4 mph 24.2 mph N/A   Overcast
6:55 PM 38.3 °F 28.7 °F 28.6 °F 68% 29.94 in 10.0 mi WSW 18.4 mph 25.3 mph N/A   Overcast
7:15 PM 38.3 °F 29.0 °F 26.4 °F 62% 29.95 in 10.0 mi SW 17.3 mph 26.5 mph N/A   Overcast
7:35 PM 38.3 °F 29.3 °F 27.5 °F 65% 29.95 in 10.0 mi SW 16.1 mph - N/A   Overcast
7:55 PM 38.3 °F 30.1 °F 27.3 °F 65% 29.96 in 10.0 mi WSW 13.8 mph 24.2 mph N/A   Overcast
8:15 PM 37.8 °F 28.6 °F 27.0 °F 65% 29.96 in 10.0 mi WSW 16.1 mph 25.3 mph N/A   Overcast
8:35 PM 37.6 °F 29.1 °F 25.7 °F 62% 29.96 in 10.0 mi WSW 13.8 mph 23.0 mph N/A   Overcast
8:55 PM 37.6 °F 27.7 °F 26.6 °F 65% 29.96 in 10.0 mi SW 18.4 mph 24.2 mph N/A   Overcast
9:15 PM 37.4 °F 28.9 °F 26.4 °F 65% 29.97 in 10.0 mi SW 13.8 mph 20.7 mph N/A   Overcast
9:35 PM 37.2 °F 29.1 °F 25.7 °F 63% 29.96 in 10.0 mi SW 12.7 mph 16.1 mph N/A   Overcast
9:55 PM 37.0 °F 26.7 °F 25.2 °F 62% 29.96 in 10.0 mi SW 19.6 mph 25.3 mph N/A   Overcast
10:15 PM 36.9 °F 27.8 °F 25.2 °F 63% 29.95 in 10.0 mi SW 15.0 mph 21.9 mph N/A   Overcast
10:35 PM 36.7 °F 28.0 °F 25.5 °F 64% 29.95 in 10.0 mi SW 13.8 mph 18.4 mph N/A   Overcast
10:55 PM 36.7 °F 27.6 °F 25.3 °F 64% 29.94 in 10.0 mi SW 15.0 mph - N/A   Overcast
11:15 PM 36.7 °F 28.4 °F 25.3 °F 64% 29.94 in 10.0 mi SW 12.7 mph 19.6 mph N/A   Overcast
11:35 PM 36.9 °F 27.1 °F 25.5 °F 64% 29.94 in 10.0 mi SW 17.3 mph 25.3 mph N/A   Overcast
11:55 PM 36.9 °F 28.2 °F 24.8 °F 62% 29.93 in 10.0 mi SW 13.8 mph 25.3 mph N/A   Overcast